Miscellaneous Local Product
Issued by NWS Hastings, NE

Home | Current Version | Previous Version | Graphics & Text | Print | Product List | Glossary On
Versions: 1 2 3 4 5 6 7 8 9 10 11 12 13 14 15 16 17 18 19 20 21 22 23 24 25 26 27 28 29 30 31 32 33 34 35 36 37 38 39 40 41 42 43 44 45 46 47 48 49 50
000
AXUS43 KGID 011202
MISGRI

GID CWA HOURLY WEATHER ROUNDUP
NATIONAL WEATHER SERVICE HASTINGS NE
700 AM CDT WED JUL 01 2015

NOTE: "FAIR" INDICATES FEW OR NO CLOUDS BELOW 12,000 FEET WITH NO
SIGNIFICANT WEATHER AND/OR OBSTRUCTIONS TO VISIBILITY.

...SOUTH CENTRAL NEBRASKA...

CITY           SKY/WX    TMP DP  RH WIND       PRES   REMARKS
GRAND ISLAND   CLEAR     67  63  87 E6        29.82R
HASTINGS       CLEAR     67  63  87 E3        29.81R FOG
KEARNEY        CLEAR     64  61  88 N7        29.83R
ORD            CLOUDY    64  62  93 N6        29.87R FOG
YORK           PTCLDY    66  64  94 SE5       29.82R
AURORA         PTCLDY    67  65  94 E6        29.81R
LEXINGTON      CLEAR     63  61  95 N8        29.84S FOG
HOLDREGE       CLEAR     64  62  95 N6        29.83R FOG
HEBRON         CLEAR     68  62  80 SE7       29.78S

...NEBRASKA PANHANDLE...

CITY           SKY/WX    TMP DP  RH WIND       PRES   REMARKS
CHADRON        CLEAR     64  61  90 W7        29.97R
ALLIANCE       CLEAR     60  58  92 W7        29.99R
SCOTTSBLUFF    CLEAR     63  58  83 CALM      30.03R
SIDNEY         CLEAR     61  57  87 NW10      30.05R

...WESTERN AND NORTH CENTRAL NEBRASKA...

CITY           SKY/WX    TMP DP  RH WIND       PRES   REMARKS
VALENTINE      CLEAR     59  58  96 CALM      29.90R
AINSWORTH      CLEAR     60  59  98 CALM      29.92R FOG
ONEILL           N/A     63  62  99 SE3       29.88R FOG
BROKEN BOW     PTCLDY    63  61  93 N10       29.89R FOG
IMPERIAL       PTCLDY    70  64  81 N15       29.92R
NORTH PLATTE   CLEAR     62  60  93 NW12      29.90R FOG
MCCOOK         CLOUDY    70  65  84 MISG      29.84R HAZE

...EASTERN NEBRASKA...

CITY           SKY/WX    TMP DP  RH WIND       PRES   REMARKS
NORFOLK        PTCLDY    65  64  97 N5        29.87R FOG
SO SIOUX CITY  CLOUDY    68  65  90 NE9       29.87R FOG
TEKAMAH        MOSUNNY   67  65  93 E10       29.85R FOG
COLUMBUS       PTCLDY    64  59  82 NE6       29.85R
ALBION         CLOUDY    64  62  91 NE7       29.88R FOG
OMAHA EPPLEY   PTSUNNY   68  65  90 E7        29.84R
MILLARD        PTCLDY    68  65  93 CALM      29.83R
LINCOLN        PTCLDY    68  65  90 E7        29.82R FOG
NEBRASKA CITY  MOCLDY    67  67  97 E6        29.83R
BEATRICE       MOCLDY    69  65  89 SE15      29.80R
FALLS CITY     CLOUDY    69  67  93 S13       29.78F

...NORTHERN KANSAS...

CITY           SKY/WX    TMP DP  RH WIND       PRES   REMARKS
GOODLAND       MOCLDY    70  55  59 NW10      29.96R
HILL CITY      MOCLDY    76  53  44 W8        29.79S
NORTON         SUNNY     73  52  46 N7        29.79S
PHILLIPSBURG   CLEAR     81  55  41 N5        29.77R
SMITH CENTER   CLEAR     72  59  64 E5        29.78R
HAYS           MOCLDY    79  54  41 W8        29.79S
RUSSELL        PTCLDY    78  57  48 SW13      29.77F
CONCORDIA      MOCLDY    73  66  78 SE12      29.76F
SALINA         MOCLDY    79  62  56 S8        29.80F
TOPEKA         LGT RAIN  70  68  93 SE13      29.87S FOG



USA.gov is the U.S. government's official web portal to all federal, state and local government web resources and services.